Find Starlink 3632

NORAD ID: 51784 Int'l Des: 2022-017 Owner: SPXS Country: US Constellation: starlink operational
LEOCIRCULAR

Live Position

Loading 3D Globe...

About Starlink 3632

Description loading...

Upcoming Passes

Passes for default location (London). Set your location on the main map for personalized predictions.

Altitude History

Loading altitude history...

Two-Line Element Set

1 51784U 22017S 26107.21581226 .00000846 00000-0 71261-4 0 9999
2 51784 53.2169 176.1714 0001146 83.4855 276.6268 15.08833715228094
Epoch: Apr 17, 2026 • Age: 11 hours

Current Status

Altitude 557.8 km
Velocity 7.58 km/s
Sub-Earth Point -50.13°S, 25.66°E
Launch Date Feb 25, 2022
Age 4.1 years
Type internet

Technical Details

Classification Payload
Mass 297.00 kg
Dry Mass 275.00 kg
Total Mass 297.00 kg
Length 0.20 m
Diameter 2.80 m
Span 9.00 m
Shape Box + pan
Manufacturer SPXS
Bus Type Starlink
Phase Status In Orbit
Owner/State SPXS/US

Most Searched